Hourly Data Report for June 12, 2018

OTTAWA INTL A
ONTARIO
Current Station Operator: NAVCAN

45°19'00.000" N
75°40'00.000" W
114.90 m
6106001
71628
YOW

Download Data

Hourly Data (June 2018)
Hourly Data Report for June 12, 2018
TIME
LST
Temp Definition
°C
Dew Point Definition
°C
Rel Hum Definition
%
Precip. Amount Definition
mm

Wind Dir Definition
10's deg

Wind Spd Definition
km/h
Visibility Definition
km
Stn Press Definition
kPa
Hmdx Definition


Wind Chill Definition


Weather Definition


00:00 13.4 4.9 56   19 8 24.1 100.54     LegendNANA
01:00 12.8 4.9 59   21 8 24.1 100.52     Clear
02:00 11.3 4.8 64   19 9 24.1 100.50     LegendNANA
03:00 10.3 5.7 73   23 7 24.1 100.48     LegendNANA
04:00 9.0 5.1 76   21 6 24.1 100.44     Mainly Clear
05:00 11.0 5.2 67   26 5 24.1 100.50     LegendNANA
06:00 11.2 7.4 77   24 4 24.1 100.55     LegendNANA
07:00 16.0 6.3 52   28 11 24.1 100.54     Mainly Clear
08:00 18.2 6.8 47   27 7 24.1 100.54     LegendNANA
09:00 21.5 7.2 39   24 9 24.1 100.48     LegendNANA
10:00 23.1 5.2 31   20 17 24.1 100.37     Mainly Clear
11:00 24.4 4.9 28   24 21 24.1 100.30     LegendNANA
12:00 25.5 6.1 28   22 18 24.1 100.19 25   LegendNANA
13:00 25.4 8.0 32   25 14 24.1 100.12 26   Mostly Cloudy
14:00 27.0 10.3 35   24 23 24.1 100.04 28   LegendNANA
15:00 26.8 11.6 38   23 24 24.1 99.95 29   LegendNANA
16:00 26.0 14.2 48   22 28 24.1 99.90 29   Mostly Cloudy
17:00 25.9 13.9 47   20 24 24.1 99.83 29   LegendNANA
18:00 24.6 13.2 48   20 20 24.1 99.78 28   LegendNANA
19:00 23.4 11.8 48   21 15 24.1 99.77 26   Cloudy
20:00 21.7 11.0 50   21 14 24.1 99.76     LegendNANA
21:00 20.5 10.7 53   21 14 24.1 99.76     LegendNANA
22:00 19.5 10.5 55   23 17 24.1 99.77     Mostly Cloudy
23:00 18.8 10.5 58   23 14 24.1 99.78     LegendNANA

Notes on Data Quality.

Legend

  • E = Estimated
  • M = Missing
  • NA = Not Available*
  • [empty] = Indicates an unobserved value
Date modified: